Regional Weather Roundup
Issued by NWS Little Rock, AR

Home | Current Version | Previous Version | Text Only | Print | Product List | Glossary On
Versions: 1 2 3 4 5 6 7 8 9 10 11 12 13 14 15 16 17 18 19 20 21 22 23 24 25 26 27 28
000
ASUS44 KLZK 261905
RWRLZK

WEATHER ROUNDUP FOR ARKANSAS
NATIONAL WEATHER SERVICE LITTLE ROCK AR
200 PM CDT THU MAY 26 2016

NOTE: "FAIR" INDICATES FEW OR NO CLOUDS BELOW 12,000 FEET WITH NO
SIGNIFICANT WEATHER AND/OR OBSTRUCTIONS TO VISIBILITY.

ARZ001-003-010-029-262000-
NORTHWEST ARKANSAS

CITY           SKY/WX    TMP DP  RH WIND       PRES   REMARKS
FAYETTEVILLE   PTSUNNY   82  73  74 S10       29.94F HX  87
FORT SMITH     CLOUDY    79  72  79 SE9       29.92S HAZE
HARRISON       MOSUNNY   84  71  65 S14       29.94F HX  89
BENTONVILLE    MOSUNNY   84  70  61 S12       29.93F HX  88
ROGERS           N/A     84  71  65 SE12      29.93F HX  89
SILOAM SPGS    CLOUDY    81  66  61 S15       29.93F
HIGHFILL       MOSUNNY   83  73  72 S14       29.92F HX  89
SPRINGDALE     MOSUNNY   82  70  65 S12       29.95F HX  86
$$

ARZ004-005-016-262000-
NORTH CENTRAL ARKANSAS

CITY           SKY/WX    TMP DP  RH WIND       PRES   REMARKS
BATESVILLE     MOSUNNY   84  72  65 S12       29.96F HX  89
FLIPPIN        MOSUNNY  N/A N/A N/A S10G17    29.90F
MTN HOME       MOSUNNY   84  72  67 S9        29.92F HX  89
$$

ARZ040-041-262000-
WEST CENTRAL ARKANSAS

CITY           SKY/WX    TMP DP  RH WIND       PRES   REMARKS
MENA           CLOUDY    79  75  89 S5        29.96F
MOUNT IDA      LGT RAIN  79  71  76 VRB3      29.94F
$$

ARZ009-017-025-026-028-262000-
NORTHEAST ARKANSAS

CITY           SKY/WX    TMP DP  RH WIND       PRES   REMARKS
CORNING        LGT RAIN  82  75  78 S15G22    29.98R HX  89
JONESBORO      MOSUNNY   84  72  67 SW15      29.96F HX  89
NEWPORT        PTSUNNY   85  74  69 S14       29.97F HX  92
WALNUT RIDGE   SUNNY     82  73  74 S18       29.96F HX  88
BLYTHEVILLE    MOSUNNY   86  73  65 S14       29.98F HX  93
NW BLYTHEVILLE PTSUNNY   86  73  66 SW21G28   29.97F HX  93
$$

ARZ022-023-033-042-044-262000-
CENTRAL ARKANSAS

CITY           SKY/WX    TMP DP  RH WIND       PRES   REMARKS
LITTLE ROCK    CLOUDY    85  75  72 SW7       29.96F HX  93
N LITTLE ROCK    N/A     84  73  68 SW7       29.94F HX  91
JACKSONVILLE   MOSUNNY   85  74  69 S7        29.96F HX  93
SEARCY         CLOUDY    82  75  78 SW5       29.98F HX  89
HOT SPRINGS    CLOUDY    81  72  74 VRB7      29.97F HX  85
RUSSELLVILLE   CLOUDY    82  72  71 CALM      29.94F HX  87
CLINTON        PTSUNNY   81  75  83 CALM      29.97F HX  86
$$

ARZ036-262000-
EAST ARKANSAS

CITY           SKY/WX    TMP DP  RH WIND       PRES   REMARKS
WEST MEMPHIS   MOSUNNY   86  72  62 S8        29.97F HX  92
$$

ARZ050-053-066-070-073-262000-
SOUTHWEST ARKANSAS

CITY           SKY/WX    TMP DP  RH WIND       PRES   REMARKS
ARKADELPHIA    MOCLDY    82  73  74 S6        29.97F HX  87
CAMDEN         PTSUNNY   86  70  58 S9        29.96F HX  90
TEXARKANA      TSTM      77  74  90 S7        29.98R
EL DORADO      PTSUNNY   85  72  65 S9        29.99F HX  91
DE QUEEN         N/A     76  75  97 CALM      29.93F
$$

ARZ056-057-069-262000-
SOUTHEAST ARKANSAS

CITY           SKY/WX    TMP DP  RH WIND       PRES   REMARKS
PINE BLUFF     MOSUNNY   86  72  62 S9        29.98F HX  92
STUTTGART      PTSUNNY   88  72  58 S15G21    29.98S HX  94
MONTICELLO     MOSUNNY   88  71  57 S8        29.98F HX  94

$$






USA.gov is the U.S. government's official web portal to all federal, state and local government web resources and services.